CW7587 Weather Reports


Display with metric or nautical units.
time (UTC)temp
F
wind
direction
speed
MPH
gust
MPH
rain 1hr
in
rain 24hr
in
rain mn
in
humidity
%
barometer
mb
20200410101853 30 270 0.0 5.0 0.00 0.02 0.00 76 1016.8
20200410101320 30 315 1.0 5.0 0.00 0.02 0.00 76 1017.1
20200410100819 30 292 0.0 0.0 0.00 0.02 0.00 76 1016.8
20200410100318 30 315 0.0 0.0 0.00 0.02 0.00 76 1016.7
20200410095817 30 292 0.0 2.0 0.00 0.02 0.00 76 1016.8
20200410095316 30 270 0.0 2.0 0.00 0.02 0.00 76 1016.8
20200410094816 30 315 0.0 2.0 0.00 0.02 0.00 75 1016.7
20200410094315 30 292 0.0 2.0 0.00 0.02 0.00 75 1016.7
20200410093814 30 270 1.0 2.0 0.00 0.02 0.00 75 1016.7
20200410093313 30 292 0.0 0.0 0.00 0.02 0.00 75 1016.8
20200410092740 30 292 0.0 0.0 0.00 0.02 0.00 75 1016.4
20200410092239 30 292 0.0 0.0 0.00 0.02 0.00 75 1016.4
20200410091205 30 270 0.0 0.0 0.00 0.02 0.00 74 1016.4
20200410090704 30 292 0.0 0.0 0.00 0.02 0.00 74 1016.4
20200410090131 30 292 0.0 0.0 0.00 0.02 0.00 74 1016.3
20200410085526 30 270 0.0 0.0 0.00 0.02 0.00 74 1016.3
20200410085025 30 315 0.0 0.0 0.00 0.02 0.00 74 1016.3
20200410084452 30 292 0.0 0.0 0.00 0.02 0.00 74 1016.4
20200410083951 30 292 0.0 0.0 0.00 0.02 0.00 73 1016.4
20200410083450 30 315 0.0 0.0 0.00 0.02 0.00 73 1016.5
20200410082918 30 315 0.0 0.0 0.00 0.02 0.00 73 1016.6
20200410082417 30 270 0.0 0.0 0.00 0.02 0.00 73 1016.6
20200410081812 30 270 0.0 0.0 0.00 0.02 0.00 73 1016.6
20200410081240 30 270 0.0 0.0 0.00 0.02 0.00 73 1016.5
20200410080739 30 292 0.0 0.0 0.00 0.02 0.00 73 1016.5
20200410080456 31 270 0.0 0.0 0.00 0.02 0.00 72 1016.5
20200410075633 31 270 0.0 0.0 0.00 0.02 0.00 72 1016.2
20200410075132 31 292 0.0 0.0 0.00 0.02 0.00 72 1016.1
20200410074456 31 270 0.0 0.0 0.00 0.02 0.00 72 1016.1
20200410073923 31 270 0.0 0.0 0.00 0.02 0.00 72 1016.1
20200410073422 31 270 0.0 0.0 0.00 0.02 0.00 72 1016.1
20200410072849 31 270 0.0 0.0 0.00 0.02 0.00 71 1016.1
20200410071407 31 292 0.0 0.0 0.00 0.02 0.00 71 1016.3
20200410070834 32 292 0.0 0.0 0.00 0.02 0.00 71 1016.3
20200410070229 32 292 0.0 0.0 0.00 0.02 0.00 70 1016.3
20200410064700 32 292 0.0 0.0 0.00 0.02 0.00 70 1016.3
20200410064157 32 292 0.0 0.0 0.00 0.02 0.00 70 1016.0
20200410063448 32 315 0.0 0.0 0.00 0.02 0.00 70 1016.0
20200410062844 32 315 0.0 0.0 0.00 0.02 0.00 71 1016.0
20200410062415 32 315 0.0 0.0 0.00 0.02 0.00 71 1016.0
20200410061810 32 292 0.0 0.0 0.00 0.02 0.00 71 1016.0
20200410061205 32 292 0.0 9.0 0.00 0.02 0.00 71 1016.0
20200410060632 32 292 0.0 9.0 0.00 0.02 0.00 71 1016.0
20200410060028 32 292 0.0 3.0 0.00 0.02 0.00 71 1016.0
20200410055455 32 292 1.0 3.0 0.00 0.02 0.00 71 1015.7
20200410054954 33 292 0.0 0.0 0.00 0.02 0.00 71 1015.7
20200410054350 33 270 0.0 3.0 0.00 0.02 0.00 71 1015.7
20200410053817 33 300 3.0 4.0 0.00 0.02 0.00 70 1015.6
20200410053213 33 315 4.0 4.0 0.00 0.02 0.00 70 1015.3
20200410052711 33 315 0.0 0.0 0.00 0.02 0.00 70 1015.3
20200410052107 33 315 0.0 0.0 0.00 0.02 0.00 70 1015.3
20200410051534 33 292 0.0 1.0 0.00 0.02 0.00 69 1015.3
20200410051001 33 292 0.0 1.0 0.00 0.02 0.00 69 1015.3
20200410050357 33 292 0.0 6.0 0.00 0.02 0.00 69 1015.0
20200410045856 33 315 0.0 6.0 0.00 0.02 0.02 69 1015.3
20200410045354 33 292 2.0 3.0 0.00 0.02 0.02 69 1015.3
20200410044853 33 315 0.0 0.0 0.00 0.02 0.02 68 1015.3
20200410044249 34 337 0.0 0.0 0.00 0.02 0.02 68 1015.3
20200410043716 34 270 0.0 2.0 0.00 0.02 0.02 68 1015.3
20200410043215 34 292 2.0 4.0 0.00 0.02 0.02 68 1015.0
20200410042611 34 292 0.0 11.0 0.00 0.02 0.02 67 1015.3
20200410042110 34 326 2.0 11.0 0.00 0.02 0.02 67 1015.3
20200410041609 34 292 0.0 9.0 0.00 0.02 0.02 67 1015.3
20200410041108 34 292 0.0 8.0 0.00 0.02 0.02 67 1015.0
20200410040503 34 330 4.0 8.0 0.00 0.02 0.02 68 1015.0
20200410040002 34 0 0.0 0.0 0.00 0.02 0.02 68 1015.0
20200410035501 34 292 0.0 3.0 0.00 0.02 0.02 68 1015.0
20200410034856 34 315 1.0 4.0 0.00 0.02 0.02 67 1015.0
20200410034355 34 292 2.0 4.0 0.00 0.02 0.02 68 1015.0
20200410033854 35 315 3.0 3.0 0.00 0.02 0.02 67 1015.0
20200410033354 35 292 0.0 3.0 0.00 0.02 0.02 68 1015.0
20200410032717 35 315 1.0 9.0 0.00 0.02 0.02 68 1015.0
20200410032216 35 343 3.0 9.0 0.00 0.02 0.02 68 1015.0
20200410031644 35 337 0.0 1.0 0.00 0.02 0.02 68 1015.0
20200410031142 35 315 0.0 3.0 0.00 0.02 0.02 68 1015.0
20200410030609 35 339 2.0 3.0 0.00 0.02 0.02 68 1015.0
20200410030158 35 325 2.0 4.0 0.00 0.02 0.02 68 1014.6
20200410025535 35 315 3.0 11.0 0.00 0.02 0.02 68 1015.0
20200410025034 35 315 2.0 11.0 0.00 0.02 0.02 68 1014.6
20200410024501 35 315 0.0 12.0 0.00 0.02 0.02 67 1014.6
20200410024000 36 328 1.0 12.0 0.00 0.02 0.02 67 1014.6
20200410023459 36 324 6.0 13.0 0.00 0.02 0.02 67 1014.6
20200410022958 36 330 2.0 13.0 0.00 0.02 0.02 67 1014.6
20200410022425 36 337 5.0 14.0 0.00 0.02 0.02 67 1014.6
20200410021852 36 300 5.0 14.0 0.00 0.02 0.02 66 1014.6
20200410021352 36 333 6.0 18.0 0.00 0.02 0.02 66 1014.3
20200410020850 37 307 7.0 18.0 0.00 0.02 0.02 65 1014.3
20200410020349 37 337 1.0 18.0 0.00 0.02 0.02 65 1014.3
20200410015848 37 337 5.0 18.0 0.00 0.02 0.02 64 1014.3
20200410015347 37 312 4.0 18.0 0.00 0.02 0.02 64 1013.6
20200410014815 37 340 7.0 15.0 0.00 0.02 0.02 63 1013.6
20200410014242 37 337 1.0 15.0 0.00 0.02 0.02 62 1013.6
20200410013741 37 337 1.0 9.0 0.00 0.02 0.02 62 1013.6
20200410013239 37 344 3.0 4.0 0.00 0.02 0.02 63 1013.6
20200410012738 37 315 1.0 3.0 0.00 0.02 0.02 64 1013.3
20200410012204 37 292 0.0 6.0 0.00 0.02 0.02 63 1013.2
20200410011704 37 337 0.0 15.0 0.00 0.02 0.02 63 1012.9
20200410011027 37 334 5.0 15.0 0.00 0.02 0.02 62 1012.9
20200410010318 37 337 4.0 5.0 0.00 0.02 0.02 64 1012.9
20200410005714 38 337 0.0 13.0 0.00 0.02 0.02 64 1012.5
20200410005109 37 317 2.0 13.0 0.00 0.02 0.02 65 1012.5
20200410004608 37 315 0.0 1.0 0.00 0.02 0.02 69 1012.5
20200410004108 37 315 0.0 1.0 0.00 0.02 0.02 75 1012.2
20200410003503 37 337 1.0 1.0 0.00 0.02 0.02 77 1012.2
20200410003004 37 337 0.0 0.0 0.00 0.02 0.02 79 1011.8
20200410002357 37 337 0.0 0.0 0.00 0.02 0.02 79 1011.8
20200410001856 37 315 0.0 0.0 0.00 0.02 0.02 79 1011.8
20200410001355 37 292 0.0 2.0 0.00 0.02 0.02 79 1011.8
20200410000853 37 292 0.0 10.0 0.00 0.02 0.02 79 1011.5
20200410000359 38 276 3.0 10.0 0.00 0.02 0.02 79 1011.5
20200409235851 38 247 0.0 3.0 0.00 0.02 0.02 79 1011.5
20200409235318 38 270 2.0 7.0 0.00 0.02 0.02 79 1011.5
20200409234641 38 286 4.0 7.0 0.00 0.02 0.02 78 1011.5
20200409234140 38 270 0.0 4.0 0.00 0.02 0.02 78 1011.5
20200409233639 38 292 0.0 4.0 0.00 0.02 0.02 78 1011.5
20200409233138 38 292 3.0 4.0 0.00 0.02 0.02 77 1011.2
20200409232638 38 270 0.0 12.0 0.00 0.02 0.02 77 1010.9
20200409232001 38 292 0.0 10.0 0.00 0.02 0.02 78 1010.9
20200409231325 39 337 0.0 3.0 0.00 0.02 0.02 79 1010.9
20200409230720 38 270 0.0 3.0 0.00 0.02 0.02 80 1010.9
20200409230147 38 292 2.0 12.0 0.00 0.02 0.02 81 1010.9
20200409225557 38 312 2.0 15.0 0.00 0.02 0.02 80 1010.9
20200409224938 38 323 7.0 19.0 0.00 0.02 0.02 77 1010.9
20200409224437 40 263 8.0 19.0 0.00 0.02 0.02 71 1010.6
20200409223905 40 292 0.0 0.0 0.00 0.02 0.02 65 1010.6
20200409223403 41 315 0.0 15.0 0.00 0.02 0.02 65 1010.3
20200409222903 41 292 1.0 15.0 0.00 0.02 0.02 66 1010.3
20200409222401 41 313 2.0 13.0 0.00 0.02 0.02 66 1010.3
20200409221900 41 347 4.0 16.0 0.00 0.02 0.02 65 1010.3
20200409221328 41 255 2.0 16.0 0.00 0.02 0.02 64 1010.3
20200409220827 40 265 2.0 13.0 0.00 0.02 0.02 64 1010.0
20200409220150 40 323 2.0 13.0 0.00 0.02 0.02 63 1010.0
20200409215649 40 320 2.0 17.0 0.02 0.02 0.02 64 1010.0
20200409215148 40 265 6.0 20.0 0.02 0.04 0.02 65 1009.6
20200409214408 39 287 5.0 20.0 0.02 0.04 0.02 65 1009.6
20200409213907 40 284 4.0 21.0 0.02 0.04 0.02 65 1009.6
20200409213406 40 270 8.0 21.0 0.02 0.04 0.02 64 1009.3
20200409212905 40 247 3.0 16.0 0.02 0.06 0.02 61 1009.3
20200409212404 40 344 5.0 16.0 0.02 0.06 0.02 62 1009.3
20200409211903 40 312 2.0 11.0 0.02 0.06 0.02 65 1009.3
20200409211402 39 321 4.0 12.0 0.02 0.06 0.02 67 1009.3
20200409210901 38 270 2.0 17.0 0.02 0.06 0.02 68 1009.3
20200409210400 38 294 8.0 17.0 0.02 0.06 0.02 68 1009.3
20200409205859 37 306 2.0 9.0 0.00 0.04 0.00 71 1009.2
20200409205358 37 337 0.0 2.0 0.00 0.06 0.00 73 1009.2
20200409204857 38 337 1.0 9.0 0.00 0.10 0.00 73 1009.3
20200409204355 38 315 2.0 18.0 0.00 0.12 0.00 73 1009.3
20200409203854 40 2 6.0 32.0 0.00 0.16 0.00 72 1009.4
20200409203353 44 340 14.0 32.0 0.00 0.16 0.00 67 1009.5
20200409202852 44 270 2.0 16.0 0.00 0.16 0.00 61 1008.8
20200409202247 43 270 2.0 16.0 0.00 0.16 0.00 63 1008.8
20200409201611 43 261 5.0 16.0 0.00 0.16 0.00 66 1008.8
20200409201110 42 247 0.0 12.0 0.00 0.18 0.00 72 1009.1
20200409200506 42 270 2.0 14.0 0.00 0.18 0.00 72 1009.1
20200409200005 41 275 6.0 14.0 0.00 0.18 0.00 72 1009.1
20200409195504 41 358 2.0 15.0 0.00 0.18 0.00 75 1008.8
20200409195003 40 311 6.0 16.0 0.00 0.18 0.00 75 1009.1
20200409194502 39 269 5.0 15.0 0.00 0.18 0.00 76 1009.4
20200409193929 39 247 4.0 15.0 0.00 0.18 0.00 73 1009.4
20200409193428 38 292 0.0 17.0 0.00 0.18 0.00 72 1009.3
20200409192855 39 315 1.0 27.0 0.00 0.18 0.00 69 1009.7
20200409191316 45 327 5.0 21.0 0.00 0.18 0.00 52 1009.2
20200409190815 45 298 8.0 21.0 0.00 0.18 0.00 46 1008.9
20200409190242 45 252 9.0 21.0 0.00 0.18 0.00 49 1008.9
20200409185741 44 271 9.0 21.0 0.00 0.22 0.00 51 1008.9
20200409185241 45 255 8.0 21.0 0.00 0.22 0.00 50 1008.9
20200409184740 45 276 8.0 25.0 0.00 0.22 0.00 45 1008.9
20200409184238 46 301 10.0 25.0 0.00 0.22 0.00 43 1008.9
20200409183737 46 319 11.0 23.0 0.00 0.22 0.00 42 1008.9
20200409183236 45 290 3.0 22.0 0.00 0.22 0.00 45 1008.6
20200409182559 44 311 4.0 25.0 0.00 0.25 0.00 46 1008.9
20200409182027 44 306 8.0 25.0 0.00 0.25 0.00 45 1008.9
20200409181350 44 292 5.0 25.0 0.00 0.25 0.00 47 1008.9
20200409180849 45 300 10.0 26.0 0.00 0.25 0.00 44 1008.9
20200409180348 45 325 10.0 26.0 0.00 0.25 0.00 41 1008.6
20200409175743 45 320 4.0 20.0 0.00 0.25 0.00 41 1008.6
20200409175211 45 263 9.0 18.0 0.00 0.25 0.00 42 1008.6
20200409173826 44 1 11.0 25.0 0.00 0.25 0.00 45 1008.6
20200409173325 44 302 10.0 25.0 0.00 0.25 0.00 43 1008.6
20200409172824 44 287 11.0 20.0 0.00 0.25 0.00 44 1008.6
20200409172323 44 337 7.0 22.0 0.00 0.25 0.00 46 1008.9
20200409171822 44 309 10.0 25.0 0.00 0.25 0.00 45 1008.9
20200409171146 44 348 11.0 25.0 0.00 0.25 0.00 43 1009.0
20200409170645 44 291 11.0 27.0 0.00 0.25 0.00 43 1008.9
20200409170143 44 302 13.0 27.0 0.00 0.25 0.00 42 1009.0
20200409165642 44 304 8.0 24.0 0.00 0.25 0.00 44 1009.0
20200409165110 44 312 11.0 24.0 0.00 0.25 0.00 44 1009.3
20200409164608 44 307 5.0 28.0 0.00 0.25 0.00 45 1009.3
20200409164107 44 333 11.0 28.0 0.00 0.25 0.00 44 1009.3
20200409163606 44 325 7.0 21.0 0.00 0.25 0.00 47 1009.0
20200409163105 44 348 9.0 21.0 0.00 0.25 0.00 46 1009.0
20200409162501 44 303 6.0 18.0 0.00 0.25 0.00 47 1009.0
20200409162000 44 247 0.0 26.0 0.00 0.25 0.00 46 1009.3
20200409161427 44 327 7.0 26.0 0.00 0.25 0.00 46 1009.0
20200409160926 44 283 10.0 20.0 0.00 0.25 0.00 47 1009.0
20200409160353 43 315 0.0 12.0 0.00 0.25 0.00 51 1009.3
20200409155821 43 327 4.0 18.0 0.00 0.25 0.00 49 1009.3
20200409155248 43 270 4.0 5.0 0.00 0.25 0.00 51 1009.3
20200409154715 43 0 1.0 20.0 0.00 0.25 0.00 49 1009.3
20200409154110 43 311 5.0 26.0 0.00 0.25 0.00 50 1009.3
20200409153625 43 307 12.0 26.0 0.00 0.25 0.00 48 1009.3
20200409152901 42 292 0.0 25.0 0.00 0.25 0.00 52 1009.3
20200409152328 42 304 13.0 25.0 0.00 0.25 0.00 49 1009.3
20200409151827 42 272 8.0 23.0 0.00 0.25 0.00 51 1009.3
20200409151325 42 336 7.0 19.0 0.00 0.25 0.00 52 1009.3
20200409150824 42 270 1.0 18.0 0.00 0.25 0.00 55 1009.0
20200409150323 42 315 5.0 21.0 0.00 0.25 0.00 53 1009.3
20200409145822 42 300 10.0 21.0 0.00 0.25 0.00 53 1009.3
20200409145249 41 309 4.0 12.0 0.00 0.25 0.00 56 1009.3
20200409144748 41 247 0.0 17.0 0.00 0.25 0.00 55 1009.3
20200409144246 41 282 6.0 17.0 0.00 0.25 0.00 56 1009.3
20200409143745 41 272 6.0 15.0 0.00 0.25 0.00 58 1009.6
20200409143213 40 337 2.0 18.0 0.00 0.25 0.00 60 1009.6
20200409142712 40 320 4.0 17.0 0.00 0.25 0.00 59 1009.6
20200409142004 40 303 10.0 17.0 0.00 0.25 0.00 60 1009.6
20200409141400 40 331 4.0 17.0 0.00 0.25 0.00 61 1009.6
20200409140858 39 317 5.0 17.0 0.00 0.25 0.00 63 1009.6
20200409140357 39 291 2.0 22.0 0.00 0.25 0.00 63 1009.6
20200409135825 39 266 8.0 22.0 0.00 0.25 0.00 63 1009.6
20200409135324 39 315 4.0 12.0 0.00 0.25 0.00 66 1009.9
20200409134823 39 270 2.0 14.0 0.00 0.25 0.00 67 1009.9
20200409134322 38 298 5.0 16.0 0.00 0.25 0.00 66 1009.9
20200409133717 38 286 4.0 15.0 0.00 0.25 0.00 68 1009.9
20200409133144 38 287 7.0 15.0 0.00 0.25 0.00 67 1009.9
20200409132540 38 269 3.0 10.0 0.00 0.25 0.00 70 1009.9
20200409132007 37 270 0.0 2.0 0.00 0.25 0.00 71 1009.9
20200409131434 37 292 2.0 3.0 0.00 0.25 0.00 71 1010.2
20200409130901 37 292 0.0 3.0 0.00 0.25 0.00 72 1010.2
20200409130400 37 270 1.0 4.0 0.00 0.25 0.00 73 1010.2
20200409125859 36 247 0.0 4.0 0.00 0.25 0.00 74 1010.2
20200409125358 36 270 2.0 4.0 0.00 0.25 0.00 74 1010.2
20200409124825 36 270 0.0 1.0 0.00 0.25 0.00 75 1010.2
20200409124045 36 270 0.0 12.0 0.00 0.25 0.00 75 1010.2
20200409123512 36 270 0.0 12.0 0.00 0.25 0.00 76 1010.2
20200409123011 35 302 2.0 7.0 0.00 0.25 0.00 76 1010.2
20200409122439 35 292 0.0 4.0 0.00 0.25 0.00 77 1010.2
20200409121906 35 270 0.0 4.0 0.00 0.25 0.00 77 1010.2
20200409121405 35 292 1.0 4.0 0.00 0.25 0.00 77 1010.2
20200409120832 35 315 0.0 0.0 0.00 0.25 0.00 77 1010.2
20200409120228 35 225 0.0 0.0 0.00 0.25 0.00 77 1010.2
20200409115727 35 270 0.0 0.0 0.00 0.25 0.00 76 1010.2
20200409115226 35 292 0.0 0.0 0.00 0.25 0.00 76 1010.2
20200409114725 35 270 0.0 0.0 0.00 0.25 0.00 75 1010.2
20200409114224 35 292 0.0 0.0 0.00 0.25 0.00 75 1010.2
20200409113723 35 270 0.0 5.0 0.00 0.25 0.00 75 1010.2
20200409113222 35 292 2.0 5.0 0.00 0.25 0.00 74 1009.9
20200409112721 35 292 3.0 5.0 0.00 0.25 0.00 74 1009.9
20200409112220 35 292 0.0 2.0 0.00 0.25 0.00 74 1009.9
20200409111719 36 292 0.0 2.0 0.00 0.25 0.00 74 1009.9
20200409111219 36 292 0.0 3.0 0.00 0.25 0.00 73 1009.9
20200409110645 36 292 3.0 11.0 0.00 0.25 0.00 73 1009.6
20200409110112 36 293 4.0 11.0 0.00 0.25 0.00 73 1009.6
20200409105539 36 247 0.0 5.0 0.00 0.27 0.00 73 1009.6
20200409105007 36 270 3.0 5.0 0.00 0.27 0.00 72 1009.6
20200409104506 36 292 0.0 13.0 0.00 0.27 0.00 72 1009.6
20200409103933 36 247 0.0 13.0 0.00 0.27 0.00 72 1009.2
20200409103400 36 270 0.0 4.0 0.00 0.27 0.00 71 1009.6
20200409102859 36 292 1.0 4.0 0.00 0.27 0.00 71 1009.2
20200409102359 36 292 0.0 4.0 0.00 0.27 0.00 71 1009.2